Weather History for Olympia, WA

Change the Weather History Date:

Thursday, June 5, 2014

  Actual Average Record
Temperature  
Mean Temperature 57 °F 58 °F  
Max Temperature 73 °F 69 °F 93 °F (1978)
Min Temperature 40 °F 46 °F 31 °F (1976)
Degree Days  
Heating Degree Days 8 8  
Month to date heating degree days 34 40  
Since 1 June heating degree days 34 40  
Since 1 July heating degree days 5124 5236  
Cooling Degree Days 0 0  
Month to date cooling degree days 0 0  
Year to date cooling degree days 1 3  
Since 1 June cooling degree days 0 0  
Growing Degree Days 6 (Base 50)    
Moisture  
Dew Point 44 °F    
Average Humidity 68    
Maximum Humidity 100    
Minimum Humidity 35    
Precipitation  
Precipitation 0.00 in 0.07 in 0.54 in (2005)
Month to date precipitation 0.00 0.36  
Year to date precipitation 29.81 24.63  
Sea Level Pressure  
Sea Level Pressure 30.14 in    
Wind  
Wind Speed 3 mph (NW)    
Max Wind Speed 12 mph    
Max Gust Speed 16 mph    
Visibility 6 miles    
Events Fog    
T = Trace of Precipitation, MM = Missing Value Source: NWS Daily Summary

Daily Weather History Graph

Daily Weather History Graph

Search for Another Location

Airport:

Trip Planner

Search our weather history database for the weather conditions in past years. The results will help you decide how hot, cold, wet, or windy it might be!

Date:

Astronomy

Jun. 05, 2014 Rise Set
Actual Time 5:18 AM PDT 9:02 PM PDT
Civil Twilight 4:39 AM PDT 9:41 PM PDT
Nautical Twilight 3:46 AM PDT 10:34 PM PDT
Astronomical Twilight 2:32 AM PDT 11:48 PM PDT
Moon 1:02 PM PDT (6/5) 1:12 AM PDT (6/5)
Length of Visible Light 17h 01m
Length of Day
15h 43m
Waxing Crescent, 49% of the Moon is Illuminated
Jun 5
Waxing Crescent
Jun 5
First Quarter
Jun 12
Full
Jun 19
Last Quarter
Jun 27
New

Hourly Weather History & Observations

Time (PDT) Temp. Dew Point Humidity Pressure Visibility Wind Dir Wind Speed Gust Speed Precip Events Conditions
12:54 AM 48.0 °F 45.0 °F 89% 30.14 in 7.0 mi SSE 3.5 mph - N/A   Partly Cloudy
1:54 AM 46.9 °F 44.1 °F 90% 30.15 in 7.0 mi Calm Calm - N/A   Clear
2:54 AM 44.1 °F 42.1 °F 93% 30.15 in 6.0 mi Calm Calm - N/A   Clear
3:54 AM 45.0 °F 43.0 °F 93% 30.15 in 5.0 mi Calm Calm - N/A   Clear
4:20 AM 43.0 °F 41.0 °F 93% 30.15 in 1.5 mi Calm Calm - N/A   Clear
4:27 AM 42.1 °F 41.0 °F 96% 30.15 in 1.2 mi Calm Calm - N/A   Clear
4:29 AM 42.1 °F 41.0 °F 96% 30.15 in 2.0 mi Calm Calm - N/A   Clear
4:37 AM 39.9 °F 39.9 °F 100% 30.15 in 3.0 mi Calm Calm - N/A   Clear
4:54 AM 42.1 °F 41.0 °F 96% 30.15 in 5.0 mi Calm Calm - N/A   Partly Cloudy
5:06 AM 42.1 °F 42.1 °F 100% 30.15 in 1.8 mi Calm Calm - N/A   Partly Cloudy
5:20 AM 42.1 °F 41.0 °F 96% 30.16 in 2.0 mi Calm Calm - N/A   Clear
5:23 AM 42.1 °F 42.1 °F 100% 30.16 in 1.2 mi Calm Calm - N/A   Clear
5:26 AM 39.9 °F 39.9 °F 100% 30.16 in 0.2 mi Calm Calm - N/A Fog Fog
5:33 AM 42.1 °F 41.0 °F 96% 30.16 in 0.2 mi Calm Calm - N/A Fog Fog
5:49 AM 42.8 °F 41.0 °F 93% 30.16 in 1.5 mi Calm Calm - N/A   Partly Cloudy
5:54 AM 41.0 °F 41.0 °F 100% 30.17 in 2.5 mi Calm Calm - N/A   Partly Cloudy
6:06 AM 41.0 °F 39.9 °F 96% 30.17 in 1.8 mi Calm Calm - N/A   Partly Cloudy
6:10 AM 42.1 °F 41.0 °F 96% 30.17 in 4.0 mi Calm Calm - N/A   Scattered Clouds
6:19 AM 42.8 °F 42.8 °F 100% 30.17 in 6.0 mi Calm Calm - N/A   Mostly Cloudy
6:29 AM 43.0 °F 42.1 °F 97% 30.17 in 5.0 mi Calm Calm - N/A   Overcast
6:41 AM 46.0 °F 45.0 °F 96% 30.17 in 5.0 mi Calm Calm - N/A   Overcast
6:54 AM 46.9 °F 46.0 °F 97% 30.17 in 5.0 mi Calm Calm - N/A   Overcast
7:54 AM 50.0 °F 46.9 °F 89% 30.18 in 5.0 mi South 3.5 mph - N/A   Overcast
8:54 AM 51.1 °F 46.9 °F 86% 30.19 in 6.0 mi Calm Calm - N/A   Overcast
9:54 AM 52.0 °F 46.9 °F 83% 30.19 in 6.0 mi ESE 3.5 mph - N/A   Haze
10:54 AM 55.0 °F 48.0 °F 77% 30.18 in 7.0 mi West 4.6 mph - N/A   Overcast
11:54 AM 60.1 °F 48.9 °F 67% 30.17 in 10.0 mi East 5.8 mph - N/A   Scattered Clouds
12:54 PM 64.0 °F 50.0 °F 60% 30.16 in 8.0 mi NNW 5.8 mph - N/A   Scattered Clouds
1:54 PM 68.0 °F 50.0 °F 52% 30.14 in 9.0 mi Variable 3.5 mph - N/A   Partly Cloudy
2:54 PM 69.1 °F 48.9 °F 49% 30.12 in 9.0 mi Variable 5.8 mph - N/A   Scattered Clouds
3:54 PM 71.1 °F 46.9 °F 42% 30.10 in 9.0 mi Variable 3.5 mph - N/A   Partly Cloudy
4:54 PM 72.0 °F 46.0 °F 40% 30.09 in 10.0 mi Variable 6.9 mph - N/A   Partly Cloudy
5:54 PM 72.0 °F 43.0 °F 35% 30.08 in 10.0 mi Variable 3.5 mph - N/A   Clear
6:54 PM 71.1 °F 46.0 °F 41% 30.07 in 10.0 mi North 9.2 mph - N/A   Clear
7:54 PM 66.9 °F 48.9 °F 52% 30.08 in 9.0 mi NNW 9.2 mph - N/A   Clear
8:54 PM 62.1 °F 46.9 °F 58% 30.09 in 9.0 mi NW 4.6 mph - N/A   Clear
9:54 PM 55.9 °F 46.9 °F 72% 30.10 in 9.0 mi Calm Calm - N/A   Clear
10:54 PM 54.0 °F 46.9 °F 77% 30.11 in 9.0 mi SSE 3.5 mph - N/A   Clear
11:54 PM 53.1 °F 46.9 °F 80% 30.11 in 9.0 mi Calm Calm - N/A   Clear